Location: Ku?niki
(51.4449°N, 17.8974°E)
Time: 18:46:00
(UTC+00:00)

USA 186 - Pass Details

Date: 18 September 2020
Orbit: 261 x 425 km, 96.9° (Epoch: 12 October)

Event Time Altitude Azimuth Distance (km) Brightness Sun altitude
Exits shadow 18:49:23 - 197° (SSW) 1,528 4.5 -17.9°
Reaches altitude 10° 18:49:36 10° 199° (SSW) 1,445 4.4 -18.0°
Maximum altitude 18:52:24 31° 264° (W) 747 3.5 -18.4°
Drops below altitude 10° 18:55:21 10° 329° (NNW) 1,514 5.4 -18.8°
Sets 18:57:33 0° 340° (NNW) 2,400 6.4 -19.1°
